User: anonymous   Login
Location: Unspecified
(0.0000°N, 0.0000°E)
Time: 04:47:33
(UTC+00:00)
Language:

ESSA 3 - Orbit

View from above orbital plane
View from above orbital plane
View from above satellite
View from above satellite

Ground track
Ground track

The orbit data is extracted from the following two-line orbital elements,

1  2435U 66087A   18020.60370167 -.00000036 +00000-0 +28503-4 0  9994
2  2435 101.0310 086.5941 0064314 065.7240 110.2610 12.56839674353370
Epoch (UTC): 20 January 2018 14:29:19
Eccentricity: 0.0064314
inclination: 101.0310°
perigee height: 1386 km
apogee height: 1486 km
right ascension of ascending node: 86.5941°
argument of perigee: 65.7240°
revolutions per day: 12.56839674
mean anomaly at epoch: 110.2610°
orbit number at epoch: 35337

The dashed part of the orbit path shows where the satellite is in the earth's shadow,  

DLR